Board Camp, AR

8:47 PM CST on February 13, 2016 (GMT -0600)
Mena

Weather History for KMEZ - March, 2013

Change the Weather History Date:

Thursday, March 14, 2013

  Actual Average (KDEQ) Record (KDEQ)
Temperature  
Mean Temperature 52 °F 53 °F  
Max Temperature 71 °F 66 °F 86 °F (1967)
Min Temperature 32 °F 40 °F 17 °F (1993)
Degree Days  
Heating Degree Days 14 12  
Month to date heating degree days 198  
Since 1 July heating degree days 2689  
Cooling Degree Days 0 0  
Month to date cooling degree days 0  
Year to date cooling degree days 2  
Growing Degree Days 2 (Base 50)    
Moisture  
Dew Point 33 °F    
Average Humidity 52    
Maximum Humidity 93    
Minimum Humidity 25    
Precipitation  
Precipitation 0.00 in 0.15 in 1.50 in (1985)
Month to date precipitation 1.61  
Year to date precipitation 8.61  
Snow  
Snow 0.00 in - - ()
Month to date snowfall  
Since 1 July snowfall  
Snow Depth -    
Sea Level Pressure  
Sea Level Pressure 30.29 in    
Wind  
Wind Speed 3 mph (SW)    
Max Wind Speed 16 mph    
Max Gust Speed 23 mph    
Visibility 10 miles    
Events      
T = Trace of Precipitation, MM = Missing Value Source: NWS Daily Summary

Daily Weather History Graph

Daily Weather History Graph

Search for Another Location

Airport or City:

Trip Planner

Search our weather history database for the weather conditions in past years. The results will help you decide how hot, cold, wet, or windy it might be!

Date:

Astronomy

Mar. 14, 2013 Rise Set
Actual Time 7:28 AM CDT 7:23 PM CDT
Civil Twilight 7:03 AM CDT 7:49 PM CDT
Nautical Twilight 6:34 AM CDT 8:18 PM CDT
Astronomical Twilight 6:04 AM CDT 8:47 PM CDT
Moon 8:51 AM CDT 10:30 PM CDT
Length of Visible Light 12h 45m
Length of Day
11h 55m
Waxing Crescent, 9% of the Moon is Illuminated
Mar 14
Waxing Crescent
Mar 19
First Quarter
Mar 27
Full
Apr 2
Last Quarter
Apr 10
New

Hourly Weather History & Observations

Time (CDT) Temp. Windchill Dew Point Humidity Pressure Visibility Wind Dir Wind Speed Gust Speed Precip Events Conditions
12:15 AM 35.6 °F - 28.4 °F 75% 30.39 in 10.0 mi Calm Calm - N/A   Clear
12:35 AM 35.6 °F - 28.4 °F 75% 30.39 in 10.0 mi Calm Calm - N/A   Clear
12:55 AM 35.6 °F - 28.4 °F 75% 30.39 in 10.0 mi Calm Calm - N/A   Clear
1:15 AM 33.8 °F - 28.4 °F 81% 30.39 in 10.0 mi Calm Calm - N/A   Clear
1:35 AM 33.8 °F - 28.4 °F 81% 30.38 in 10.0 mi Calm Calm - N/A   Clear
1:55 AM 35.6 °F - 30.2 °F 81% 30.38 in 10.0 mi Calm Calm - N/A   Clear
2:15 AM 33.8 °F - 28.4 °F 81% 30.37 in 10.0 mi Calm Calm - N/A   Clear
2:35 AM 32.0 °F - 30.2 °F 93% 30.37 in 10.0 mi Calm Calm - N/A   Clear
2:55 AM 33.8 °F - 30.2 °F 87% 30.37 in 10.0 mi Calm Calm - N/A   Clear
3:15 AM 33.8 °F - 30.2 °F 87% 30.36 in 10.0 mi Calm Calm - N/A   Clear
3:35 AM 33.8 °F - 28.4 °F 81% 30.35 in 10.0 mi Calm Calm - N/A   Clear
3:55 AM 33.8 °F - 30.2 °F 87% 30.35 in 10.0 mi Calm Calm - N/A   Clear
4:15 AM 33.8 °F - 30.2 °F 87% 30.35 in 10.0 mi Calm Calm - N/A   Clear
4:35 AM 32.0 °F - 28.4 °F 87% 30.35 in 10.0 mi Calm Calm - N/A   Clear
4:55 AM 32.0 °F - 28.4 °F 87% 30.35 in 10.0 mi Calm Calm - N/A   Clear
5:15 AM 32.0 °F - 28.4 °F 87% 30.35 in 10.0 mi Calm Calm - N/A   Clear
5:35 AM 32.0 °F - 28.4 °F 87% 30.34 in 10.0 mi Calm Calm - N/A   Clear
5:55 AM 32.0 °F 27.5 °F 30.2 °F 93% 30.35 in 10.0 mi West 4.6 mph - N/A   Clear
6:15 AM 32.0 °F - 30.2 °F 93% 30.35 in 10.0 mi Calm Calm - N/A   Clear
6:35 AM 32.0 °F - 30.2 °F 93% 30.36 in 10.0 mi Calm Calm - N/A   Clear
6:55 AM 32.0 °F - 30.2 °F 93% 30.35 in 10.0 mi Calm Calm - N/A   Clear
7:15 AM 32.0 °F - 30.2 °F 93% 30.36 in 10.0 mi Calm Calm - N/A   Clear
7:35 AM 32.0 °F - 30.2 °F 93% 30.37 in 10.0 mi Calm Calm - N/A   Clear
7:55 AM 32.0 °F - 30.2 °F 93% 30.37 in 10.0 mi Calm Calm - N/A   Clear
8:15 AM 33.8 °F - 30.2 °F 87% 30.38 in 10.0 mi Calm Calm - N/A   Clear
8:35 AM 35.6 °F - 32.0 °F 87% 30.38 in 10.0 mi Calm Calm - N/A   Clear
8:55 AM 39.2 °F - 32.0 °F 75% 30.39 in 10.0 mi Calm Calm - N/A   Clear
9:15 AM 42.8 °F - 32.0 °F 66% 30.38 in 10.0 mi Calm Calm - N/A   Clear
9:55 AM 53.6 °F - 33.8 °F 47% 30.38 in 10.0 mi East 3.5 mph - N/A   Clear
10:15 AM 60.8 °F - 24.8 °F 25% 30.38 in 10.0 mi South 5.8 mph - N/A   Clear
10:35 AM 60.8 °F - 24.8 °F 25% 30.37 in 10.0 mi SW 9.2 mph - N/A   Clear
10:55 AM 60.8 °F - 24.8 °F 25% 30.36 in 10.0 mi SW 6.9 mph - N/A   Clear
11:15 AM 62.6 °F - 26.6 °F 26% 30.36 in 10.0 mi SSW 5.8 mph - N/A   Clear
11:35 AM 62.6 °F - 26.6 °F 26% 30.34 in 10.0 mi WSW 9.2 mph - N/A   Clear
11:55 AM 64.4 °F - 30.2 °F 28% 30.33 in 10.0 mi WSW 11.5 mph 16.1 mph N/A   Clear
12:15 PM 64.4 °F - 30.2 °F 28% 30.33 in 10.0 mi SW 11.5 mph 19.6 mph N/A   Clear
12:35 PM 66.2 °F - 32.0 °F 28% 30.32 in 10.0 mi WSW 8.1 mph 20.7 mph N/A   Clear
12:55 PM 68.0 °F - 32.0 °F 26% 30.31 in 10.0 mi SSW 10.4 mph 18.4 mph N/A   Clear
1:15 PM 68.0 °F - 32.0 °F 26% 30.30 in 10.0 mi SSW 9.2 mph 17.3 mph N/A   Clear
1:35 PM 69.8 °F - 35.6 °F 28% 30.29 in 10.0 mi WSW 13.8 mph 19.6 mph N/A   Clear
1:55 PM 69.8 °F - 33.8 °F 27% 30.28 in 10.0 mi West 15.0 mph 23.0 mph N/A   Clear
2:15 PM 71.6 °F - 33.8 °F 25% 30.28 in 10.0 mi SW 11.5 mph 18.4 mph N/A   Clear
2:35 PM 71.6 °F - 33.8 °F 25% 30.26 in 10.0 mi WSW 16.1 mph 21.9 mph N/A   Clear
2:55 PM 71.6 °F - 33.8 °F 25% 30.25 in 10.0 mi SW 13.8 mph 18.4 mph N/A   Clear
3:15 PM 69.8 °F - 33.8 °F 27% 30.24 in 7.0 mi WSW 10.4 mph 17.3 mph N/A   Scattered Clouds
3:35 PM 69.8 °F - 35.6 °F 28% 30.23 in 4.0 mi WSW 10.4 mph 17.3 mph N/A   Haze
3:55 PM 69.8 °F - 33.8 °F 27% 30.23 in 5.0 mi WSW 10.4 mph 16.1 mph N/A   Haze
4:15 PM 69.8 °F - 35.6 °F 28% 30.22 in 7.0 mi WSW 6.9 mph - N/A   Scattered Clouds
4:35 PM 71.6 °F - 35.6 °F 27% 30.22 in 7.0 mi WSW 6.9 mph - N/A   Clear
4:55 PM 69.8 °F - 35.6 °F 28% 30.21 in 10.0 mi SW 6.9 mph - N/A   Clear
5:15 PM 71.6 °F - 35.6 °F 27% 30.21 in 10.0 mi SW 8.1 mph - N/A   Clear
5:35 PM 71.6 °F - 35.6 °F 27% 30.20 in 10.0 mi SW 8.1 mph - N/A   Clear
5:55 PM 71.6 °F - 35.6 °F 27% 30.20 in 10.0 mi WSW 6.9 mph - N/A   Clear
6:15 PM 71.6 °F - 35.6 °F 27% 30.19 in 10.0 mi SW 6.9 mph - N/A   Clear
6:35 PM 71.6 °F - 35.6 °F 27% 30.19 in 10.0 mi SW 4.6 mph - N/A   Clear
6:55 PM 69.8 °F - 37.4 °F 31% 30.19 in 10.0 mi SW 3.5 mph - N/A   Clear
7:15 PM 69.8 °F - 37.4 °F 31% 30.19 in 10.0 mi SW 4.6 mph - N/A   Clear
7:35 PM 68.0 °F - 37.4 °F 33% 30.19 in 10.0 mi SW 4.6 mph - N/A   Clear
7:55 PM 66.2 °F - 37.4 °F 35% 30.19 in 10.0 mi SW 4.6 mph - N/A   Clear
8:15 PM 68.0 °F - 37.4 °F 33% 30.19 in 10.0 mi SW 5.8 mph - N/A   Clear
8:35 PM 68.0 °F - 37.4 °F 33% 30.19 in 10.0 mi SW 5.8 mph - N/A   Clear
8:55 PM 68.0 °F - 37.4 °F 33% 30.18 in 10.0 mi SW 8.1 mph - N/A   Clear
9:15 PM 68.0 °F - 39.2 °F 35% 30.19 in 10.0 mi WSW 9.2 mph - N/A   Clear
9:55 PM 68.0 °F - 39.2 °F 35% 30.18 in 10.0 mi SW 5.8 mph - N/A   Clear
10:15 PM 68.0 °F - 41.0 °F 37% 30.18 in 10.0 mi WSW 9.2 mph - N/A   Clear
10:35 PM 68.0 °F - 41.0 °F 37% 30.18 in 10.0 mi SW 6.9 mph - N/A   Clear
10:55 PM 66.2 °F - 41.0 °F 40% 30.19 in 10.0 mi WSW 8.1 mph - N/A   Clear
11:15 PM 66.2 °F - 41.0 °F 40% 30.19 in 10.0 mi WSW 10.4 mph - N/A   Clear
11:35 PM 66.2 °F - 41.0 °F 40% 30.20 in 10.0 mi WSW 6.9 mph - N/A   Clear
11:55 PM 64.4 °F - 41.0 °F 42% 30.19 in 10.0 mi WSW 6.9 mph - N/A   Clear